pornobuceta.com alexa rank chart, pornobuceta.com alexa rank daily changes

pornobuceta.com alexa rank chart, pornobuceta.com alexa rank daily changes

pornobuceta.com
Actual rank:
35 487

RANK HISTORY

Date Rank Diff
2017/05/28 35 487 -59
2017/05/27 35 546 -448
2017/05/26 35 994 -303
2017/05/25 36 297 -186
2017/05/24 36 483 +909
2017/05/23 35 574 -316
2017/05/22 35 890 -514
2017/05/21 36 404 +133
2017/05/20 36 271 -96
2017/05/19 36 367 +105
2017/05/18 36 262 +63
2017/05/17 36 199 +295
2017/05/16 35 904 +610
2017/05/15 35 294 -451
2017/05/14 35 745 +211
2017/05/13 35 534 +571
2017/05/12 34 963 -457
2017/05/11 35 420 +448
2017/05/10 34 972 +310
2017/05/09 34 662 +145
2017/05/08 34 517 +115
2017/05/07 34 402 -541
2017/05/06 34 943 -268
2017/05/05 35 211 -274
2017/05/04 35 485 +328
2017/05/03 35 157 -388
2017/05/02 35 545 -368
2017/05/01 35 913 +255
2017/04/30 35 658 +201
2017/04/29 35 457 +40
2017/04/28 35 417 +881
2017/04/27 34 536 +535
2017/04/26 34 001 +124
2017/04/25 33 877 +231
2017/04/24 33 646 -619
2017/04/23 34 265 +374
2017/04/22 33 891 -7
2017/04/21 33 898 +536
2017/04/20 33 362 +332
2017/04/19 33 030 +10
2017/04/18 33 020 +7
2017/04/17 33 013 -589
2017/04/16 33 602 -501
2017/04/15 34 103 -91
2017/04/14 34 194 -26
2017/04/13 34 220 -298
2017/04/12 34 518 -34
2017/04/11 34 552 -80
2017/04/10 34 632 +187
2017/04/09 34 445 +197
2017/04/08 34 248 -13
2017/04/07 34 261 +255
2017/04/06 34 006 +937
2017/04/05 33 069 +365
2017/04/04 32 704 -352
2017/04/03 33 056 +420
2017/04/02 32 636 +16
2017/04/01 32 620 +262
2017/03/31 32 358 -295
2017/03/30 32 653 +278
2017/03/29 32 375

WIDGET FOR YOUR SITE

DOMAINS WITH THE NEAREST RANK

Domain Rank
decathlon.tw 35 482
tsutaya.co.jp 35 483
tube-ok.com 35 484
lahoo.ca 35 485
mojtv.hr 35 486
pornobuceta.com 35 487
uh.cu 35 488
mailxmail.com 35 489
androidzoom.ir 35 490
limango-outlet.de 35 491
superdry.com 35 492

DOMAINS WITH THE NEAREST RANK BY TLD .com

Domain Rank
humankinetics.com 35 476
esdiario.com 35 477
socopoco.com 35 478
novinhasdozapzap.com 35 479
tube-ok.com 35 484
pornobuceta.com 35 487
mailxmail.com 35 489
superdry.com 35 492
varzesh11.com 35 495
pokehuntr.com 35 496
thehealthorange.com 35 497